| time (UTC) | temp F | wind direction | speed knots | gust knots | rain 1hr in | rain 24hr in | rain mn in | humidity % | barometer mb |
| 20260503072022 | 52 | 223 | 0.0 | 0.9 | 0.00 | 0.00 | 0.00 | 65 | 1015.0 |
| 20260503071557 | 52 | 221 | 0.0 | 0.9 | 0.00 | 0.00 | 0.00 | 66 | 1015.0 |
| 20260503071022 | 52 | 0 | 0.0 | 0.9 | 0.00 | 0.00 | 0.00 | 66 | 1015.0 |
| 20260503070522 | 52 | 0 | 0.0 | 0.9 | 0.00 | 0.00 | 0.00 | 64 | 1015.0 |
| 20260503055021 | 55 | 190 | 0.0 | 0.9 | 0.00 | 0.00 | 0.00 | 59 | 1014.7 |
| 20260503054553 | 55 | 0 | 0.0 | 1.7 | 0.00 | 0.00 | 0.00 | 61 | 1014.6 |
| 20260503054022 | 55 | 0 | 0.0 | 1.7 | 0.00 | 0.00 | 0.00 | 61 | 1014.6 |
| 20260503053522 | 55 | 232 | 0.0 | 1.7 | 0.00 | 0.00 | 0.00 | 61 | 1014.7 |
| 20260503053039 | 55 | 230 | 0.0 | 0.9 | 0.00 | 0.00 | 0.00 | 57 | 1014.7 |
| 20260503052522 | 55 | 230 | 0.0 | 0.9 | 0.00 | 0.00 | 0.00 | 60 | 1014.6 |
| 20260503052022 | 56 | 0 | 0.0 | 0.9 | 0.00 | 0.00 | 0.00 | 57 | 1014.6 |
| 20260503051539 | 56 | 230 | 0.9 | 0.9 | 0.00 | 0.00 | 0.00 | 58 | 1014.5 |
| 20260503051021 | 56 | 230 | 0.0 | 0.9 | 0.00 | 0.00 | 0.00 | 61 | 1014.5 |
| 20260503050522 | 56 | 230 | 0.0 | 0.9 | 0.00 | 0.00 | 0.00 | 55 | 1014.4 |
| 20260503050039 | 57 | 0 | 0.0 | 0.9 | 0.00 | 0.00 | 0.00 | 59 | 1014.5 |
| 20260503045522 | 57 | 230 | 0.9 | 0.9 | 0.00 | 0.00 | 0.00 | 55 | 1014.5 |
| 20260503045021 | 57 | 0 | 0.0 | 0.9 | 0.00 | 0.00 | 0.00 | 57 | 1014.4 |
| 20260503044549 | 57 | 0 | 0.0 | 0.9 | 0.00 | 0.00 | 0.00 | 55 | 1014.5 |
| 20260503044026 | 57 | 230 | 0.9 | 0.9 | 0.00 | 0.00 | 0.00 | 54 | 1014.6 |
| 20260503043522 | 57 | 230 | 0.9 | 1.7 | 0.00 | 0.00 | 0.00 | 55 | 1014.5 |
| 20260503043046 | 57 | 230 | 0.9 | 1.7 | 0.00 | 0.00 | 0.00 | 54 | 1014.5 |
| 20260503042522 | 57 | 230 | 1.7 | 1.7 | 0.00 | 0.00 | 0.00 | 54 | 1014.5 |
| 20260503042022 | 57 | 230 | 0.9 | 1.7 | 0.00 | 0.00 | 0.00 | 55 | 1014.5 |
| 20260503041539 | 58 | 228 | 0.9 | 1.7 | 0.00 | 0.00 | 0.00 | 50 | 1014.3 |
| 20260503041022 | 58 | 227 | 0.9 | 1.7 | 0.00 | 0.00 | 0.00 | 53 | 1014.3 |
| 20260503040523 | 58 | 226 | 0.9 | 1.7 | 0.00 | 0.00 | 0.00 | 54 | 1014.3 |
| 20260503040041 | 58 | 218 | 0.0 | 0.9 | 0.00 | 0.00 | 0.00 | 58 | 1014.3 |
| 20260503035522 | 58 | 218 | 0.0 | 0.9 | 0.00 | 0.00 | 0.00 | 55 | 1014.3 |
| 20260503035021 | 59 | 0 | 0.0 | 0.9 | 0.00 | 0.00 | 0.00 | 57 | 1014.2 |
| 20260503034541 | 59 | 218 | 0.0 | 0.9 | 0.00 | 0.00 | 0.00 | 54 | 1014.1 |
| 20260503034022 | 59 | 218 | 0.9 | 0.9 | 0.00 | 0.00 | 0.00 | 55 | 1014.1 |
| 20260503033524 | 59 | 217 | 0.9 | 0.9 | 0.00 | 0.00 | 0.00 | 57 | 1014.0 |
| 20260503033040 | 60 | 217 | 0.0 | 0.9 | 0.00 | 0.00 | 0.00 | 55 | 1013.9 |
| 20260503032521 | 60 | 217 | 0.0 | 0.9 | 0.00 | 0.00 | 0.00 | 54 | 1013.9 |
| 20260503032025 | 60 | 217 | 0.0 | 0.9 | 0.00 | 0.00 | 0.00 | 56 | 1013.9 |
| 20260503031539 | 60 | 217 | 0.0 | 0.9 | 0.00 | 0.00 | 0.00 | 54 | 1013.8 |
| 20260503031022 | 61 | 217 | 0.0 | 0.9 | 0.00 | 0.00 | 0.00 | 55 | 1013.9 |
| 20260503030522 | 61 | 217 | 0.0 | 0.9 | 0.00 | 0.00 | 0.00 | 55 | 1013.8 |
| 20260503030038 | 62 | 217 | 0.9 | 0.9 | 0.00 | 0.00 | 0.00 | 55 | 1013.8 |
| 20260503025521 | 62 | 217 | 0.9 | 0.9 | 0.00 | 0.00 | 0.00 | 54 | 1013.7 |
| 20260503025022 | 63 | 216 | 0.9 | 0.9 | 0.00 | 0.00 | 0.00 | 51 | 1013.7 |
| 20260503024536 | 63 | 216 | 0.9 | 0.9 | 0.00 | 0.00 | 0.00 | 50 | 1013.7 |
| 20260503024021 | 63 | 216 | 0.9 | 0.9 | 0.00 | 0.00 | 0.00 | 52 | 1013.7 |
| 20260503023522 | 64 | 215 | 0.0 | 0.9 | 0.00 | 0.00 | 0.00 | 50 | 1013.7 |
| 20260503023043 | 64 | 214 | 0.0 | 0.9 | 0.00 | 0.00 | 0.00 | 47 | 1013.7 |
| 20260503022521 | 65 | 0 | 0.0 | 0.9 | 0.00 | 0.00 | 0.00 | 46 | 1013.7 |
| 20260503022025 | 65 | 0 | 0.9 | 0.9 | 0.00 | 0.00 | 0.00 | 46 | 1013.7 |
| 20260503021545 | 66 | 214 | 0.9 | 0.9 | 0.00 | 0.00 | 0.00 | 45 | 1013.7 |
| 20260503021021 | 66 | 213 | 0.0 | 0.9 | 0.00 | 0.00 | 0.00 | 45 | 1013.7 |
| 20260503020521 | 66 | 0 | 0.0 | 0.9 | 0.00 | 0.00 | 0.00 | 43 | 1013.6 |
| 20260503020043 | 66 | 213 | 0.0 | 0.9 | 0.00 | 0.00 | 0.00 | 43 | 1013.7 |
| 20260503015521 | 67 | 213 | 0.9 | 0.9 | 0.00 | 0.00 | 0.00 | 42 | 1013.7 |
| 20260503015022 | 67 | 213 | 0.0 | 0.9 | 0.00 | 0.00 | 0.00 | 41 | 1013.6 |
| 20260503014538 | 68 | 0 | 0.0 | 0.9 | 0.00 | 0.00 | 0.00 | 40 | 1013.6 |
| 20260503014021 | 68 | 213 | 0.0 | 0.9 | 0.00 | 0.00 | 0.00 | 39 | 1013.6 |
| 20260503013522 | 68 | 0 | 0.0 | 0.0 | 0.00 | 0.00 | 0.00 | 38 | 1013.6 |
| 20260503013038 | 68 | 0 | 0.0 | 0.9 | 0.00 | 0.00 | 0.00 | 38 | 1013.5 |
| 20260503012522 | 69 | 0 | 0.0 | 0.9 | 0.00 | 0.00 | 0.00 | 37 | 1013.5 |
| 20260503012021 | 69 | 0 | 0.0 | 0.9 | 0.00 | 0.00 | 0.00 | 37 | 1013.5 |
| 20260503011548 | 69 | 0 | 0.0 | 0.9 | 0.00 | 0.00 | 0.00 | 37 | 1013.5 |
| 20260503011022 | 69 | 0 | 0.0 | 0.9 | 0.00 | 0.00 | 0.00 | 37 | 1013.6 |
| 20260503010521 | 69 | 0 | 0.0 | 0.9 | 0.00 | 0.00 | 0.00 | 38 | 1013.7 |
| 20260503010042 | 69 | 0 | 0.0 | 0.9 | 0.00 | 0.00 | 0.00 | 38 | 1013.7 |
| 20260503005521 | 69 | 0 | 0.0 | 0.9 | 0.00 | 0.00 | 0.00 | 37 | 1013.8 |
| 20260503005021 | 70 | 0 | 0.0 | 0.9 | 0.00 | 0.00 | 0.00 | 38 | 1013.8 |
| 20260503004540 | 70 | 0 | 0.0 | 1.7 | 0.00 | 0.00 | 0.00 | 38 | 1013.9 |
| 20260503004024 | 70 | 0 | 0.0 | 1.7 | 0.00 | 0.00 | 0.00 | 37 | 1014.0 |
| 20260503003521 | 70 | 0 | 0.0 | 1.7 | 0.00 | 0.00 | 0.00 | 42 | 1014.0 |
| 20260503003038 | 71 | 216 | 0.0 | 1.7 | 0.00 | 0.00 | 0.00 | 45 | 1014.1 |
| 20260503002521 | 71 | 216 | 0.0 | 0.9 | 0.00 | 0.00 | 0.00 | 40 | 1014.1 |
| 20260503002022 | 72 | 0 | 0.0 | 0.9 | 0.00 | 0.00 | 0.00 | 36 | 1014.1 |
| 20260503001547 | 72 | 0 | 0.0 | 0.9 | 0.00 | 0.00 | 0.00 | 33 | 1014.1 |
| 20260503001025 | 73 | 0 | 0.0 | 0.9 | 0.00 | 0.00 | 0.00 | 34 | 1014.0 |
| 20260503000526 | 73 | 38 | 0.0 | 1.7 | 0.00 | 0.00 | 0.00 | 32 | 1014.1 |
| 20260503000100 | 74 | 0 | 0.0 | 3.5 | 0.00 | 0.00 | 0.00 | 31 | 1014.1 |
| 20260502235521 | 75 | 38 | 0.0 | 3.5 | 0.00 | 0.00 | 0.00 | 29 | 1014.0 |
| 20260502235022 | 76 | 0 | 0.9 | 3.5 | 0.00 | 0.00 | 0.00 | 28 | 1014.0 |
| 20260502234539 | 76 | 9 | 0.9 | 2.6 | 0.00 | 0.00 | 0.00 | 27 | 1014.1 |
| 20260502234021 | 76 | 224 | 0.0 | 1.7 | 0.00 | 0.00 | 0.00 | 29 | 1014.1 |
| 20260502233520 | 77 | 9 | 0.0 | 1.7 | 0.00 | 0.00 | 0.00 | 29 | 1014.2 |
| 20260502233039 | 77 | 49 | 0.0 | 3.5 | 0.00 | 0.00 | 0.00 | 29 | 1014.2 |
| 20260502232521 | 76 | 23 | 0.9 | 3.5 | 0.00 | 0.00 | 0.00 | 28 | 1014.2 |
| 20260502232021 | 75 | 98 | 0.0 | 2.6 | 0.00 | 0.00 | 0.00 | 28 | 1014.3 |
| 20260502231536 | 75 | 0 | 0.9 | 2.6 | 0.00 | 0.00 | 0.00 | 31 | 1014.4 |
| 20260502231022 | 75 | 311 | 0.0 | 2.6 | 0.00 | 0.00 | 0.00 | 31 | 1014.5 |
| 20260502230522 | 76 | 223 | 0.0 | 2.6 | 0.00 | 0.00 | 0.00 | 28 | 1014.5 |
| 20260502230036 | 76 | 0 | 0.0 | 2.6 | 0.00 | 0.00 | 0.00 | 32 | 1014.4 |
| 20260502225525 | 77 | 358 | 0.0 | 2.6 | 0.00 | 0.00 | 0.00 | 26 | 1014.5 |
| 20260502225021 | 77 | 164 | 0.9 | 5.2 | 0.00 | 0.00 | 0.00 | 26 | 1014.6 |
| 20260502224547 | 77 | 0 | 1.7 | 5.2 | 0.00 | 0.00 | 0.00 | 30 | 1014.6 |
| 20260502224023 | 77 | 260 | 0.9 | 4.3 | 0.00 | 0.00 | 0.00 | 27 | 1014.6 |
| 20260502223521 | 77 | 333 | 0.9 | 4.3 | 0.00 | 0.00 | 0.00 | 28 | 1014.6 |
| 20260502223039 | 77 | 40 | 1.7 | 4.3 | 0.00 | 0.00 | 0.00 | 27 | 1014.7 |
| 20260502222521 | 77 | 43 | 0.9 | 3.5 | 0.00 | 0.00 | 0.00 | 29 | 1014.7 |
| 20260502222022 | 78 | 59 | 0.9 | 2.6 | 0.00 | 0.00 | 0.00 | 26 | 1014.8 |
| 20260502221539 | 77 | 97 | 0.9 | 2.6 | 0.00 | 0.00 | 0.00 | 27 | 1014.8 |
| 20260502221021 | 78 | 87 | 0.9 | 3.5 | 0.00 | 0.00 | 0.00 | 27 | 1015.0 |
| 20260502220521 | 77 | 32 | 1.7 | 3.5 | 0.00 | 0.00 | 0.00 | 26 | 1015.1 |
| 20260502220046 | 77 | 0 | 0.0 | 3.5 | 0.00 | 0.00 | 0.00 | 27 | 1015.1 |
| 20260502215524 | 77 | 97 | 1.7 | 3.5 | 0.00 | 0.00 | 0.00 | 28 | 1015.1 |
| 20260502215026 | 77 | 51 | 0.9 | 2.6 | 0.00 | 0.00 | 0.00 | 25 | 1015.3 |
| 20260502214537 | 77 | 37 | 0.9 | 2.6 | 0.00 | 0.00 | 0.00 | 26 | 1015.3 |
| 20260502214022 | 78 | 88 | 1.7 | 2.6 | 0.00 | 0.00 | 0.00 | 26 | 1015.3 |
| 20260502213521 | 77 | 111 | 0.9 | 2.6 | 0.00 | 0.00 | 0.00 | 26 | 1015.3 |
| 20260502213043 | 77 | 154 | 0.9 | 3.5 | 0.00 | 0.00 | 0.00 | 25 | 1015.4 |
| 20260502212521 | 77 | 95 | 1.7 | 3.5 | 0.00 | 0.00 | 0.00 | 27 | 1015.6 |
| 20260502212020 | 77 | 26 | 0.9 | 3.5 | 0.00 | 0.00 | 0.00 | 25 | 1015.6 |
| 20260502211540 | 78 | 23 | 0.9 | 3.5 | 0.00 | 0.00 | 0.00 | 24 | 1015.6 |
| 20260502211020 | 77 | 273 | 0.9 | 3.5 | 0.00 | 0.00 | 0.00 | 29 | 1015.7 |
| 20260502210520 | 77 | 5 | 0.9 | 3.5 | 0.00 | 0.00 | 0.00 | 25 | 1015.7 |
| 20260502210039 | 77 | 36 | 0.9 | 3.5 | 0.00 | 0.00 | 0.00 | 28 | 1015.8 |
| 20260502205521 | 76 | 167 | 0.9 | 3.5 | 0.00 | 0.00 | 0.00 | 24 | 1015.7 |
| 20260502205024 | 76 | 147 | 0.9 | 2.6 | 0.00 | 0.00 | 0.00 | 26 | 1015.8 |
| 20260502204538 | 77 | 70 | 0.9 | 4.3 | 0.00 | 0.00 | 0.00 | 24 | 1015.7 |
| 20260502204021 | 76 | 223 | 0.9 | 4.3 | 0.00 | 0.00 | 0.00 | 27 | 1015.9 |
| 20260502203522 | 77 | 24 | 0.9 | 2.6 | 0.00 | 0.00 | 0.00 | 30 | 1015.9 |
| 20260502203036 | 76 | 0 | 0.9 | 2.6 | 0.00 | 0.00 | 0.00 | 28 | 1016.0 |
| 20260502202521 | 76 | 140 | 0.9 | 2.6 | 0.00 | 0.00 | 0.00 | 26 | 1016.0 |
| 20260502202021 | 75 | 122 | 0.9 | 2.6 | 0.00 | 0.00 | 0.00 | 29 | 1016.1 |
| 20260502201547 | 75 | 71 | 0.9 | 4.3 | 0.00 | 0.00 | 0.00 | 28 | 1016.1 |
| 20260502201021 | 74 | 69 | 0.9 | 4.3 | 0.00 | 0.00 | 0.00 | 32 | 1016.0 |
| 20260502200525 | 74 | 36 | 0.9 | 3.5 | 0.00 | 0.00 | 0.00 | 32 | 1016.1 |
| 20260502200053 | 73 | 124 | 1.7 | 3.5 | 0.00 | 0.00 | 0.00 | 35 | 1016.2 |
| 20260502195521 | 73 | 219 | 1.7 | 3.5 | 0.00 | 0.00 | 0.00 | 35 | 1016.2 |
| 20260502195020 | 72 | 14 | 1.7 | 3.5 | 0.00 | 0.00 | 0.00 | 35 | 1016.2 |
| 20260502194541 | 73 | 28 | 0.9 | 3.5 | 0.00 | 0.00 | 0.00 | 34 | 1016.4 |
| 20260502194021 | 72 | 55 | 0.9 | 3.5 | 0.00 | 0.00 | 0.00 | 36 | 1016.5 |
| 20260502193521 | 73 | 42 | 0.0 | 3.5 | 0.00 | 0.00 | 0.00 | 35 | 1016.6 |
| 20260502193042 | 72 | 205 | 0.0 | 3.5 | 0.00 | 0.00 | 0.00 | 36 | 1016.6 |
| 20260502192520 | 72 | 0 | 0.9 | 3.5 | 0.00 | 0.00 | 0.00 | 37 | 1016.8 |
| 20260502192022 | 72 | 0 | 0.9 | 2.6 | 0.00 | 0.00 | 0.00 | 39 | 1016.8 |
| 20260502191538 | 71 | 150 | 0.0 | 3.5 | 0.00 | 0.00 | 0.00 | 41 | 1016.8 |
| 20260502191020 | 70 | 156 | 0.9 | 3.5 | 0.00 | 0.00 | 0.00 | 40 | 1016.8 |
| 20260502190521 | 70 | 93 | 0.0 | 3.5 | 0.00 | 0.00 | 0.00 | 41 | 1017.0 |
| 20260502190044 | 70 | 225 | 0.9 | 3.5 | 0.00 | 0.00 | 0.00 | 39 | 1017.0 |
| 20260502185520 | 69 | 74 | 0.0 | 3.5 | 0.00 | 0.00 | 0.00 | 41 | 1017.1 |
| 20260502185021 | 70 | 53 | 0.0 | 3.5 | 0.00 | 0.00 | 0.00 | 41 | 1017.2 |
| 20260502184534 | 70 | 146 | 0.9 | 3.5 | 0.00 | 0.00 | 0.00 | 42 | 1017.2 |
| 20260502184021 | 69 | 94 | 0.9 | 3.5 | 0.00 | 0.00 | 0.00 | 42 | 1017.2 |
| 20260502183521 | 68 | 0 | 0.9 | 3.5 | 0.00 | 0.00 | 0.00 | 40 | 1017.2 |
| 20260502183039 | 68 | 36 | 0.9 | 3.5 | 0.00 | 0.00 | 0.00 | 41 | 1017.3 |
| 20260502182522 | 68 | 14 | 1.7 | 3.5 | 0.00 | 0.00 | 0.00 | 43 | 1017.3 |
| 20260502182024 | 67 | 32 | 0.9 | 4.3 | 0.00 | 0.00 | 0.00 | 42 | 1017.4 |
| 20260502181539 | 67 | 257 | 0.9 | 4.3 | 0.00 | 0.00 | 0.00 | 41 | 1017.4 |
| 20260502181021 | 68 | 76 | 0.9 | 2.6 | 0.00 | 0.00 | 0.00 | 43 | 1017.5 |
| 20260502180521 | 67 | 0 | 0.9 | 2.6 | 0.00 | 0.00 | 0.00 | 42 | 1017.5 |
| 20260502164021 | 64 | 19 | 0.0 | 2.6 | 0.00 | 0.00 | 0.00 | 46 | 1017.8 |
| 20260502163521 | 63 | 45 | 0.0 | 2.6 | 0.00 | 0.00 | 0.00 | 49 | 1017.8 |
| 20260502163045 | 63 | 29 | 0.9 | 2.6 | 0.00 | 0.00 | 0.00 | 47 | 1017.8 |
| 20260502162521 | 62 | 231 | 0.0 | 3.5 | 0.00 | 0.00 | 0.00 | 50 | 1017.8 |
| 20260502162023 | 62 | 0 | 0.0 | 3.5 | 0.00 | 0.00 | 0.00 | 49 | 1017.8 |
| 20260502161539 | 61 | 69 | 0.0 | 2.6 | 0.00 | 0.00 | 0.00 | 53 | 1018.0 |
| 20260502161021 | 60 | 114 | 0.0 | 2.6 | 0.00 | 0.00 | 0.00 | 51 | 1018.1 |
| 20260502160523 | 59 | 36 | 0.0 | 2.6 | 0.00 | 0.00 | 0.00 | 53 | 1018.2 |
| 20260502152021 | 57 | 0 | 0.0 | 0.9 | 0.00 | 0.00 | 0.00 | 58 | 1017.9 |
| 20260502151600 | 57 | 140 | 0.0 | 0.9 | 0.00 | 0.00 | 0.00 | 59 | 1017.9 |
| 20260502151021 | 56 | 198 | 0.0 | 0.9 | 0.00 | 0.00 | 0.00 | 60 | 1017.9 |
| 20260502150521 | 54 | 0 | 0.0 | 0.9 | 0.00 | 0.00 | 0.00 | 61 | 1017.9 |
| 20260502140106 | 47 | 0 | 0.0 | 0.0 | 0.00 | 0.00 | 0.00 | 80 | 1017.8 |
| 20260502130523 | 45 | 0 | 0.0 | 0.9 | 0.00 | 0.00 | 0.00 | 79 | 1017.5 |
| 20260502123521 | 45 | 237 | 0.0 | 0.9 | 0.00 | 0.00 | 0.00 | 79 | 1017.3 |
| 20260502123041 | 45 | 237 | 0.0 | 0.9 | 0.00 | 0.00 | 0.00 | 78 | 1017.3 |
| 20260502122521 | 45 | 237 | 0.0 | 0.0 | 0.00 | 0.00 | 0.00 | 79 | 1017.2 |
| 20260502122021 | 45 | 0 | 0.0 | 0.0 | 0.00 | 0.00 | 0.00 | 78 | 1017.3 |
| 20260502121539 | 45 | 237 | 0.0 | 0.9 | 0.00 | 0.00 | 0.00 | 78 | 1017.3 |
| 20260502121021 | 45 | 237 | 0.0 | 0.9 | 0.00 | 0.00 | 0.00 | 78 | 1017.2 |
| 20260502120522 | 45 | 237 | 0.0 | 0.9 | 0.00 | 0.00 | 0.00 | 78 | 1017.2 |
| 20260502115521 | 46 | 237 | 0.0 | 0.9 | 0.00 | 0.00 | 0.00 | 77 | 1017.2 |
| 20260502115021 | 46 | 237 | 0.0 | 0.9 | 0.00 | 0.00 | 0.00 | 77 | 1017.3 |
| 20260502114539 | 46 | 0 | 0.0 | 0.9 | 0.00 | 0.00 | 0.00 | 78 | 1017.3 |
| 20260502114020 | 46 | 0 | 0.0 | 0.9 | 0.00 | 0.00 | 0.00 | 77 | 1017.2 |
| 20260502113520 | 46 | 0 | 0.0 | 0.9 | 0.00 | 0.00 | 0.00 | 77 | 1017.2 |
| 20260502113048 | 46 | 237 | 0.0 | 0.9 | 0.00 | 0.00 | 0.00 | 76 | 1017.2 |
| 20260502112520 | 46 | 237 | 0.0 | 0.9 | 0.00 | 0.00 | 0.00 | 76 | 1017.2 |
| 20260502112020 | 46 | 237 | 0.0 | 0.9 | 0.00 | 0.00 | 0.00 | 75 | 1017.2 |
| 20260502111535 | 46 | 237 | 0.0 | 0.9 | 0.00 | 0.00 | 0.00 | 76 | 1017.2 |
| 20260502111021 | 46 | 0 | 0.0 | 0.9 | 0.00 | 0.00 | 0.00 | 76 | 1017.2 |
| 20260502110521 | 46 | 237 | 0.0 | 0.9 | 0.00 | 0.00 | 0.00 | 75 | 1017.2 |
| 20260502110038 | 47 | 237 | 0.0 | 0.9 | 0.00 | 0.00 | 0.00 | 75 | 1017.2 |
| 20260502105523 | 47 | 237 | 0.0 | 0.9 | 0.00 | 0.00 | 0.00 | 75 | 1017.3 |
| 20260502105022 | 47 | 0 | 0.0 | 0.9 | 0.00 | 0.00 | 0.00 | 75 | 1017.2 |
| 20260502104540 | 47 | 237 | 0.9 | 0.9 | 0.00 | 0.00 | 0.00 | 73 | 1017.3 |
| 20260502104024 | 47 | 237 | 0.0 | 0.9 | 0.00 | 0.00 | 0.00 | 73 | 1017.3 |
| 20260502103520 | 47 | 237 | 0.0 | 0.9 | 0.00 | 0.00 | 0.00 | 73 | 1017.2 |
| 20260502103039 | 47 | 0 | 0.0 | 0.0 | 0.00 | 0.00 | 0.00 | 73 | 1017.3 |
| 20260502102521 | 47 | 0 | 0.0 | 0.0 | 0.00 | 0.00 | 0.00 | 73 | 1017.2 |
| 20260502102020 | 47 | 0 | 0.0 | 0.0 | 0.00 | 0.00 | 0.00 | 72 | 1017.2 |
| 20260502101538 | 47 | 0 | 0.0 | 0.0 | 0.00 | 0.00 | 0.00 | 72 | 1017.1 |
| 20260502101020 | 47 | 0 | 0.0 | 0.0 | 0.00 | 0.00 | 0.00 | 73 | 1017.0 |
| 20260502100520 | 47 | 0 | 0.0 | 0.0 | 0.00 | 0.00 | 0.00 | 73 | 1017.0 |
| 20260502091020 | 49 | 0 | 0.0 | 0.0 | 0.00 | 0.00 | 0.00 | 71 | 1016.7 |
| 20260502090520 | 49 | 0 | 0.0 | 0.0 | 0.00 | 0.00 | 0.00 | 70 | 1016.8 |
| 20260502090108 | 49 | 0 | 0.0 | 0.9 | 0.00 | 0.00 | 0.00 | 68 | 1016.8 |